Home   Weather   Milan   Past weeks

Flag for Italy Past Weather in Milan, Italy — Yesterday and Last 2 Weeks

Now
57 °F

Passing clouds.


Feels Like: 56 °F
Forecast: 52 / 61 °F
Wind: 7 mph from East

Location: Milan / Linate

Current Time: Apr 26, 2017 at 6:06:20 am

Latest Report: Apr 26, 2017 at 4:50 am


Visibility: N/A

Pressure: 29.71 "Hg

Humidity: 67%

Dew Point: 46 °F

Location of MilanLocation

Past Weather in Milan — Graph

°F

Milan Temperature Yesterday

Maximum temperature yesterday: 64 °F (at 1:20 pm)
Minimum temperature yesterday: 55 °F (at 6:20 am)
Average temperature yesterday: 61 °F

High & Low Weather Summary for the Past Weeks

 TemperatureHumidityPressure
High77 °F (Apr 13, 4:50 pm)100% (Apr 16, 3:50 am)30.39 "Hg (Apr 16, 3:50 am)
Low34 °F (Apr 20, 6:20 am)11% (Apr 18, 3:50 pm)29.71 "Hg (Apr 26, 4:50 am)
Average59 °F51%30.00 "Hg
* Reported Apr 11 4:20 am — Apr 26 4:50 am, Milan, Weather by CustomWeather, © 2017

Note: Actual official high and low records may vary slightly from our data, if they occured in-between our weather recording intervals... More about our weather records

Advertising

Milan Weather History for the Previous 24 Hours

Scroll right to see more
 ConditionsComfort  
Time TempWeatherWind HumidityBarometerVisibility
4:50 am
Wed, Apr 26
57 °FPassing clouds.7 mph67%29.71 "HgN/A
4:20 am59 °FPassing clouds.8 mph63%29.74 "HgN/A
3:50 am59 °FPassing clouds.9 mph63%29.74 "HgN/A
3:20 am59 °FPassing clouds.8 mph59%29.74 "HgN/A
2:20 am57 °FPassing clouds.6 mph63%29.77 "HgN/A
1:50 am57 °FPassing clouds.5 mph63%29.77 "HgN/A
1:20 am59 °FPassing clouds.8 mph59%29.77 "HgN/A
12:50 am57 °FPassing clouds.6 mph72%29.77 "HgN/A
12:20 am59 °FPassing clouds.3 mph72%29.77 "HgN/A
11:50 pm
Tue, Apr 25
59 °FPassing clouds.3 mph72%29.80 "HgN/A
11:20 pm61 °FPassing clouds.7 mph68%29.80 "HgN/A
10:50 pm61 °FPassing clouds.2 mph59%29.80 "HgN/A
10:20 pm61 °FPassing clouds.5 mph68%29.80 "HgN/A
9:50 pm61 °FPassing clouds.5 mph72%29.80 "Hg5 mi
8:50 pm63 °FPassing clouds.5 mph64%29.77 "Hg5 mi
8:20 pm63 °FPartly sunny.5 mph64%29.77 "Hg5 mi
7:50 pm63 °FPartly sunny.7 mph64%29.77 "Hg5 mi
7:20 pm63 °FPartly sunny.5 mph64%29.77 "Hg5 mi
6:50 pm64 °FPartly sunny.6 mph60%29.77 "Hg5 mi
6:20 pm64 °FPartly sunny.7 mph60%29.80 "Hg5 mi
5:50 pm64 °FPartly sunny.3 mph60%29.80 "Hg5 mi
5:20 pm64 °FPartly sunny.6 mph60%29.80 "Hg5 mi
4:50 pm64 °FBroken clouds.6 mph60%29.83 "Hg5 mi
4:20 pm64 °FLight rain. Partly sunny.6 mph64%29.83 "Hg5 mi
3:50 pm63 °FLight rain. Partly sunny.5 mph64%29.86 "Hg5 mi
3:20 pm64 °FPartly sunny.9 mph60%29.86 "Hg5 mi
2:50 pm64 °FBroken clouds.10 mph60%29.86 "Hg5 mi
2:20 pm64 °FPartly sunny.7 mph60%29.86 "Hg5 mi
1:50 pm64 °FPartly sunny.9 mph60%29.89 "Hg4 mi
1:20 pm64 °FFog.7 mph60%29.89 "Hg3 mi
12:50 pm63 °FFog.9 mph64%29.89 "Hg3 mi
12:20 pm63 °FFog.7 mph64%29.92 "Hg3 mi
11:50 am63 °FFog.7 mph64%29.92 "Hg3 mi
11:20 am63 °FFog.6 mph64%29.92 "Hg3 mi
10:20 am59 °FFog.5 mph82%29.92 "Hg2 mi
9:50 am57 °FFog.7 mph88%29.92 "Hg2 mi
9:20 am57 °FFog.8 mph88%29.95 "Hg2 mi
8:50 am55 °FFog.5 mph94%29.95 "Hg2 mi
8:20 am55 °FFog.6 mph94%29.95 "Hg2 mi
7:50 am55 °FFog.6 mph94%29.92 "Hg2 mi
7:20 am55 °FFog.3 mph94%29.92 "Hg2 mi
6:50 am55 °FFog.3 mph88%29.92 "Hg2 mi
6:20 am55 °FFog.5 mph88%29.92 "Hg3 mi
Weather by CustomWeather, © 2017

See weather overviewHow to use our weather pages